Location: Dover
(39.1580°N, 75.5250°W)
Time: 13:28:42
(UTC-04:00)

SeaSat 1 - Visible Passes

Search period start: 05 July 2015 00:00
Search period end: 15 July 2015 00:00
Orbit: 746 x 748 km, 108.0° (Epoch: 05 July)

Date Brightness Start Highest point End Pass type
(mag) Time Alt. Az. Time Alt. Az. Time Alt. Az.
05 Jul 3.1 22:21:10 20° S 22:24:22 47° WSW 22:29:07 10° NW visible
06 Jul 2.6 21:38:33 15° SE 21:42:34 64° ENE 21:47:28 10° NNW visible
06 Jul 4.6 23:18:22 12° SW 23:20:34 15° WSW 23:23:19 10° WNW visible
07 Jul 3.8 20:57:03 10° ESE 21:01:02 26° NE 21:05:06 10° N visible
07 Jul 3.3 22:35:45 23° SSW 22:38:24 42° WSW 22:43:04 10° NW visible
08 Jul 2.5 21:53:07 20° SE 21:56:35 72° ENE 22:01:31 10° NNW visible
08 Jul 4.7 23:32:56 12° SW 23:34:39 14° WSW 23:36:56 10° WNW visible
09 Jul 3.7 21:10:53 10° ESE 21:15:00 28° NE 21:19:13 10° N visible
09 Jul 3.5 22:50:18 26° SSW 22:52:26 38° WSW 22:57:00 10° NW visible
10 Jul 2.4 22:07:40 25° SSE 22:10:35 80° ENE 22:15:33 10° NNW visible
10 Jul 4.8 23:47:29 11° WSW 23:48:44 12° W 23:50:24 10° W visible
11 Jul 3.5 21:25:02 12° ESE 21:28:59 31° NE 21:33:20 10° N visible
11 Jul 3.6 23:04:50 27° SW 23:06:28 34° WSW 23:10:55 10° NW visible
12 Jul 2.4 22:22:12 31° SSE 22:24:35 88° ENE 22:29:34 10° NNW visible
13 Jul 4.9 00:02:01 10° WSW 00:02:50 10° W 00:03:26 10° W visible
13 Jul 3.4 21:39:33 15° ESE 21:42:58 34° ENE 21:47:26 10° N visible
13 Jul 3.7 23:19:22 27° SW 23:20:31 30° WSW 23:24:49 10° NW visible
14 Jul 4.5 20:58:59 10° E 21:01:35 15° NE 21:04:23 10° NNE visible
14 Jul 2.4 22:36:43 39° SSE 22:38:36 83° WSW 22:43:34 10° NNW visible
